TIANTONG-1 1

Last updated on Tue Sep 22 2026 00:03:14 GMT+0000 (Coordinated Universal Time)

1 41725U 16048A 26264.36661013 -.00000318 00000+0 00000+0 0 9995 2 41725 4.0342 44.0270 0002170 88.3715 101.2482 1.00270100 37237
UTC large
Height (km)
Speed (km/s)
/
Latitude / Longitude
Inclination (degrees)
Orbital Period (minutes)
Azimuth
Elevation
Range (km)
Doppler Factor

Next 0 passes for location: London (51.5072 / 0.1276)

No passes found over London.
TIANTONG-1 1